| time (UTC) | temp F | wind direction | speed knots | gust knots | rain 1hr in | rain 24hr in | rain mn in | humidity % | barometer mb |
| 20260508161533 | 63 | 321 | 0.9 | 4.3 | 0.00 | 0.00 | 0.00 | 41 | 1013.4 |
| 20260508160030 | 62 | 28 | 1.7 | 6.1 | 0.00 | 0.00 | 0.00 | 37 | 1013.6 |
| 20260508154524 | 62 | 186 | 0.9 | 5.2 | 0.00 | 0.00 | 0.00 | 41 | 1013.8 |
| 20260508153020 | 61 | 272 | 1.7 | 6.1 | 0.00 | 0.00 | 0.00 | 39 | 1013.9 |
| 20260508151515 | 59 | 160 | 0.9 | 7.0 | 0.00 | 0.00 | 0.00 | 41 | 1013.9 |
| 20260508150020 | 59 | 166 | 0.0 | 3.5 | 0.00 | 0.00 | 0.00 | 44 | 1014.1 |
| 20260508144528 | 59 | 219 | 0.9 | 1.7 | 0.00 | 0.00 | 0.00 | 41 | 1014.2 |
| 20260508143024 | 58 | 183 | 1.7 | 6.1 | 0.00 | 0.00 | 0.00 | 42 | 1014.3 |
| 20260508141515 | 58 | 216 | 0.9 | 4.3 | 0.00 | 0.00 | 0.00 | 42 | 1014.4 |
| 20260508140006 | 57 | 354 | 0.9 | 2.6 | 0.00 | 0.00 | 0.00 | 45 | 1014.5 |
| 20260508134529 | 56 | 306 | 2.6 | 4.3 | 0.00 | 0.00 | 0.00 | 42 | 1014.6 |
| 20260508133021 | 55 | 265 | 0.9 | 1.7 | 0.00 | 0.00 | 0.00 | 45 | 1014.7 |
| 20260508131518 | 55 | 211 | 0.0 | 2.6 | 0.00 | 0.00 | 0.00 | 47 | 1014.6 |
| 20260508130020 | 54 | 311 | 0.0 | 2.6 | 0.00 | 0.00 | 0.00 | 52 | 1014.9 |
| 20260508124514 | 53 | 240 | 0.9 | 2.6 | 0.00 | 0.00 | 0.00 | 60 | 1014.8 |
| 20260508123013 | 52 | 259 | 0.0 | 1.7 | 0.00 | 0.00 | 0.00 | 63 | 1014.7 |
| 20260508121516 | 51 | 206 | 0.9 | 3.5 | 0.00 | 0.00 | 0.00 | 67 | 1014.7 |
| 20260508120006 | 50 | 273 | 0.0 | 1.7 | 0.00 | 0.00 | 0.00 | 73 | 1014.6 |
| 20260508114533 | 49 | 278 | 0.0 | 1.7 | 0.00 | 0.00 | 0.00 | 76 | 1014.4 |
| 20260508113034 | 47 | 261 | 0.0 | 2.6 | 0.00 | 0.00 | 0.00 | 80 | 1014.4 |
| 20260508111525 | 45 | 276 | 0.0 | 1.7 | 0.00 | 0.00 | 0.00 | 85 | 1014.5 |
| 20260508110019 | 44 | 248 | 0.0 | 1.7 | 0.00 | 0.00 | 0.00 | 88 | 1014.4 |
| 20260508104515 | 43 | 248 | 0.0 | 0.0 | 0.00 | 0.00 | 0.00 | 89 | 1013.9 |
| 20260508103013 | 43 | 248 | 0.0 | 0.0 | 0.00 | 0.00 | 0.00 | 88 | 1013.8 |
| 20260508101510 | 43 | 248 | 0.0 | 0.0 | 0.00 | 0.00 | 0.00 | 87 | 1013.7 |
| 20260508100034 | 43 | 248 | 0.0 | 0.0 | 0.00 | 0.00 | 0.00 | 86 | 1013.5 |
| 20260508094525 | 43 | 248 | 0.0 | 0.0 | 0.00 | 0.00 | 0.00 | 85 | 1013.4 |
| 20260508093025 | 44 | 248 | 0.0 | 0.0 | 0.00 | 0.00 | 0.00 | 83 | 1013.3 |
| 20260508091523 | 44 | 248 | 0.0 | 0.0 | 0.00 | 0.00 | 0.00 | 82 | 1013.3 |
| 20260508090025 | 45 | 248 | 0.0 | 0.0 | 0.00 | 0.01 | 0.00 | 79 | 1013.2 |
| 20260508084519 | 46 | 248 | 0.0 | 0.0 | 0.00 | 0.01 | 0.00 | 77 | 1013.1 |
| 20260508083015 | 47 | 248 | 0.0 | 0.0 | 0.00 | 0.01 | 0.00 | 74 | 1012.9 |
| 20260508081526 | 49 | 248 | 0.0 | 0.9 | 0.00 | 0.01 | 0.00 | 71 | 1012.5 |
| 20260508080028 | 49 | 195 | 0.0 | 3.5 | 0.00 | 0.01 | 0.00 | 71 | 1012.3 |
| 20260508074526 | 50 | 172 | 0.0 | 3.5 | 0.00 | 0.01 | 0.00 | 69 | 1012.0 |
| 20260508073028 | 51 | 316 | 0.9 | 3.5 | 0.00 | 0.01 | 0.00 | 68 | 1011.8 |
| 20260508071526 | 51 | 266 | 0.0 | 3.5 | 0.00 | 0.01 | 0.00 | 67 | 1011.4 |
| 20260508070021 | 51 | 282 | 1.7 | 6.1 | 0.00 | 0.01 | 0.00 | 70 | 1011.4 |
| 20260508064546 | 52 | 270 | 0.0 | 2.6 | 0.00 | 0.01 | 0.00 | 72 | 1011.1 |
| 20260508063029 | 51 | 125 | 0.9 | 4.3 | 0.00 | 0.01 | 0.00 | 74 | 1011.0 |
| 20260508061514 | 52 | 288 | 0.0 | 3.5 | 0.00 | 0.01 | 0.00 | 74 | 1010.6 |
| 20260508060015 | 52 | 282 | 0.0 | 2.6 | 0.00 | 0.02 | 0.00 | 73 | 1010.3 |
| 20260508054508 | 53 | 229 | 0.0 | 3.5 | 0.00 | 0.03 | 0.00 | 72 | 1010.2 |
| 20260508053008 | 54 | 278 | 0.0 | 2.6 | 0.00 | 0.15 | 0.00 | 71 | 1010.1 |
| 20260508051510 | 54 | 286 | 0.0 | 2.6 | 0.00 | 0.18 | 0.00 | 71 | 1010.0 |
| 20260508050008 | 54 | 229 | 0.9 | 2.6 | 0.00 | 0.18 | 0.00 | 70 | 1009.9 |
| 20260508044504 | 54 | 219 | 0.0 | 3.5 | 0.00 | 0.18 | 0.00 | 70 | 1009.8 |
| 20260508043004 | 54 | 194 | 0.0 | 1.7 | 0.00 | 0.18 | 0.00 | 71 | 1009.9 |
| 20260508041519 | 53 | 241 | 0.0 | 2.6 | 0.00 | 0.18 | 0.00 | 72 | 1009.9 |
| 20260508040017 | 52 | 201 | 0.0 | 1.7 | 0.00 | 0.18 | 0.00 | 73 | 1009.8 |
| 20260508034521 | 51 | 238 | 0.0 | 0.9 | 0.00 | 0.18 | 0.18 | 74 | 1009.9 |
| 20260508033012 | 52 | 238 | 0.0 | 0.0 | 0.00 | 0.19 | 0.18 | 71 | 1009.9 |
| 20260508031508 | 52 | 239 | 0.0 | 1.7 | 0.00 | 0.19 | 0.18 | 69 | 1009.8 |
| 20260508030004 | 53 | 228 | 0.0 | 1.7 | 0.00 | 0.19 | 0.18 | 67 | 1009.8 |
| 20260508024505 | 51 | 183 | 0.0 | 3.5 | 0.00 | 0.19 | 0.18 | 71 | 1009.8 |
| 20260508023022 | 50 | 227 | 0.0 | 0.0 | 0.00 | 0.19 | 0.18 | 74 | 1009.5 |
| 20260508021517 | 49 | 227 | 0.0 | 0.0 | 0.00 | 0.19 | 0.18 | 73 | 1009.5 |
| 20260508020015 | 49 | 227 | 0.0 | 0.0 | 0.00 | 0.19 | 0.18 | 72 | 1009.6 |
| 20260508014513 | 50 | 227 | 0.0 | 0.0 | 0.00 | 0.19 | 0.18 | 70 | 1009.3 |
| 20260508013013 | 51 | 227 | 0.0 | 0.0 | 0.00 | 0.19 | 0.18 | 68 | 1009.3 |
| 20260508011509 | 52 | 227 | 0.0 | 0.0 | 0.00 | 0.19 | 0.18 | 64 | 1009.0 |
| 20260508010020 | 52 | 227 | 0.0 | 0.0 | 0.00 | 0.19 | 0.18 | 62 | 1009.0 |
| 20260508004536 | 54 | 227 | 0.0 | 0.0 | 0.00 | 0.19 | 0.18 | 59 | 1009.0 |
| 20260508003025 | 55 | 227 | 0.0 | 0.0 | 0.00 | 0.19 | 0.18 | 55 | 1008.7 |
| 20260508001527 | 56 | 227 | 0.0 | 0.0 | 0.00 | 0.19 | 0.18 | 50 | 1008.8 |
| 20260508000019 | 57 | 227 | 0.0 | 0.0 | 0.00 | 0.19 | 0.18 | 47 | 1008.8 |
| 20260507234524 | 59 | 227 | 0.0 | 1.7 | 0.00 | 0.19 | 0.18 | 43 | 1008.7 |
| 20260507233023 | 60 | 226 | 0.0 | 2.6 | 0.00 | 0.19 | 0.18 | 39 | 1008.6 |
| 20260507231512 | 61 | 265 | 0.0 | 4.3 | 0.00 | 0.19 | 0.18 | 38 | 1008.5 |
| 20260507230008 | 62 | 266 | 0.0 | 6.1 | 0.00 | 0.19 | 0.18 | 36 | 1008.2 |
| 20260507224528 | 62 | 261 | 0.0 | 1.7 | 0.00 | 0.19 | 0.18 | 36 | 1008.1 |
| 20260507223024 | 63 | 297 | 0.0 | 3.5 | 0.00 | 0.19 | 0.18 | 37 | 1008.1 |
| 20260507221522 | 64 | 354 | 0.0 | 2.6 | 0.00 | 0.19 | 0.18 | 35 | 1008.2 |
| 20260507220020 | 63 | 283 | 0.0 | 2.6 | 0.00 | 0.19 | 0.18 | 35 | 1008.2 |
| 20260507214525 | 64 | 302 | 0.9 | 7.0 | 0.00 | 0.19 | 0.18 | 35 | 1008.3 |
| 20260507213017 | 64 | 310 | 0.9 | 3.5 | 0.00 | 0.19 | 0.18 | 34 | 1008.3 |
| 20260507211512 | 64 | 240 | 0.9 | 6.1 | 0.00 | 0.19 | 0.18 | 34 | 1008.2 |
| 20260507210012 | 65 | 217 | 1.7 | 6.1 | 0.00 | 0.19 | 0.18 | 34 | 1008.1 |
| 20260507204509 | 64 | 297 | 0.9 | 5.2 | 0.00 | 0.19 | 0.18 | 38 | 1008.0 |
| 20260507203008 | 64 | 111 | 0.0 | 5.2 | 0.00 | 0.19 | 0.18 | 39 | 1007.9 |
| 20260507201512 | 64 | 354 | 0.9 | 3.5 | 0.00 | 0.19 | 0.18 | 37 | 1008.0 |
| 20260507200006 | 64 | 273 | 0.9 | 7.0 | 0.00 | 0.19 | 0.18 | 36 | 1008.2 |
| 20260507194502 | 64 | 359 | 1.7 | 7.0 | 0.00 | 0.19 | 0.18 | 36 | 1008.4 |
| 20260507193021 | 64 | 354 | 0.9 | 5.2 | 0.00 | 0.19 | 0.18 | 40 | 1008.7 |
| 20260507191516 | 64 | 160 | 0.9 | 6.1 | 0.00 | 0.19 | 0.18 | 38 | 1008.7 |
| 20260507190017 | 64 | 160 | 0.9 | 3.5 | 0.00 | 0.19 | 0.18 | 42 | 1009.1 |
| 20260507184511 | 64 | 1 | 0.9 | 3.5 | 0.00 | 0.19 | 0.18 | 40 | 1009.4 |
| 20260507183025 | 63 | 328 | 1.7 | 6.1 | 0.00 | 0.19 | 0.18 | 44 | 1009.4 |
| 20260507181507 | 63 | 163 | 0.0 | 6.1 | 0.00 | 0.19 | 0.18 | 41 | 1009.3 |
| 20260507180005 | 63 | 346 | 1.7 | 3.5 | 0.00 | 0.19 | 0.18 | 46 | 1009.6 |
| 20260507174541 | 62 | 295 | 0.9 | 6.1 | 0.00 | 0.19 | 0.18 | 46 | 1009.9 |
| 20260507173024 | 62 | 11 | 0.9 | 3.5 | 0.00 | 0.19 | 0.18 | 42 | 1010.1 |
| 20260507171522 | 62 | 193 | 0.9 | 4.3 | 0.00 | 0.19 | 0.18 | 44 | 1010.3 |
| 20260507170018 | 62 | 10 | 1.7 | 4.3 | 0.00 | 0.19 | 0.18 | 46 | 1010.4 |
| 20260507164513 | 61 | 300 | 0.9 | 4.3 | 0.00 | 0.19 | 0.18 | 47 | 1010.6 |
| 20260507163018 | 61 | 288 | 0.9 | 4.3 | 0.00 | 0.19 | 0.18 | 45 | 1010.9 |